This demonstration page uses our WeatherBlox Daily Observations layout. Learn more.

Left ArrowRight Arrow

Hourly Observations for August 6, 2018

Temp ( °F °C ) Dew Point ( °F °C ) Humidity (%) Winds ( mph kmh ) Pressure ( in mb ) Visibility ( mi km ) Precip ( " mm )
12:52 am 00:52 Clear 79 26.1 66 18.9 65 65 S 10 17 30.05 1018 10 16 0.00 0.00
1:52 am 01:52 Clear 77 25 66 18.9 69 69 S 9 15 30.03 1017 10 16 0.00 0.00
2:52 am 02:52 Clear 75 23.9 66 18.9 74 74 S 8 13 30.03 1017 10 16 0.00 0.00
3:52 am 03:52 Clear 75 23.9 66 18.9 74 74 S 9 15 30.03 1017 10 16 0.00 0.00
4:52 am 04:52 Clear 73 22.8 66 18.9 79 79 S 8 13 30.02 1017 10 16 0.00 0.00
5:52 am 05:52 Clear 73 22.8 66 18.9 79 79 S 8 13 30.04 1017 10 16 0.00 0.00
6:52 am 06:52 Sunny 75 23.9 66 18.9 74 74 S 9 15 30.05 1018 10 16 0.00 0.00
7:52 am 07:52 Sunny 79 26.1 67 19.4 67 67 SSW 10 17 30.07 1018 10 16 0.00 0.00
8:52 am 08:52 Mostly Sunny 83 28.3 67 19.4 59 59 SSW 10 17 30.09 1019 10 16 0.00 0.00
9:52 am 09:52 Mostly Sunny 88 31.1 66 18.9 48 48 WSW 16 26 30.08 1019 10 16 0.00 0.00
10:52 am 10:52 Sunny 90 32.2 66 18.9 45 45 SW 15 24 30.07 1018 10 16 0.00 0.03
11:52 am 11:52 Sunny 94 34.4 66 18.9 40 40 SW 14 22 30.07 1018 10 16 0.00 0.00
12:52 pm 12:52 Sunny 97 36.1 64 17.8 34 34 WSW 17 28 30.05 1018 10 16 0.00 0.00
1:52 pm 13:52 Partly Cloudy 96 35.6 63 17.2 34 34 WSW 17 28 30.02 1017 10 16 0.00 0.00
2:52 pm 14:52 Mostly Cloudy 97 36.1 63 17.2 33 33 SW 17 28 30.00 1016 10 16 0.00 0.00
3:52 pm 15:52 Mostly Sunny 98 36.7 63 17.2 32 32 WSW 14 22 29.98 1015 10 16 0.00 0.00
4:52 pm 16:52 Mostly Sunny 96 35.6 62 16.7 32 32 W 14 22 29.97 1015 10 16 0.00 0.00
5:52 pm 17:52 Mostly Sunny 97 36.1 64 17.8 34 34 WSW 12 19 29.96 1015 10 16 0.00 0.00
6:52 pm 18:52 Mostly Sunny 95 35 62 16.7 34 34 W 13 20 29.96 1015 10 16 0.00 0.00
7:24 pm 19:24 Partly Cloudy with Nearby Thunderstorms 93 33.9 65 18.3 40 40 ESE 12 19 29.94 1014 10 16 0.00 0.00
7:44 pm 19:44 Cloudy with Nearby Thunderstorms 87 30.6 66 18.9 50 50 SE 10 17 29.94 1014 10 16 0.00 0.00
7:52 pm 19:52 Cloudy with Nearby Thunderstorms 86 30 67 19.4 53 53 SE 13 20 30.00 1016 10 16 0.00 0.00
8:01 pm 20:01 Mostly Cloudy 85 29.4 66 18.9 53 53 SSE 17 28 30.00 1016 10 16 0.00 0.00
8:31 pm 20:31 Clear with Nearby Thunderstorms 81 27.2 66 18.9 61 61 SE 18 30 30.00 1016 10 16 0.00 0.00
8:49 pm 20:49 Clear 82 28 64 18 55 55 SE 13 20 30.00 1016 10 16 0.00 0.00
8:52 pm 20:52 Clear 82 27.8 64 17.8 55 55 SSE 9 15 30.01 1016 10 16 0.00 0.00
9:52 pm 21:52 Mostly Clear 81 27.2 64 17.8 57 57 S 12 19 30.02 1017 10 16 0.00 0.00
10:52 pm 22:52 Clear 79 26.1 66 18.9 65 65 S 8 13 30.01 1016 10 16 0.00 0.00
11:52 pm 23:52 Clear 77 25 67 19.4 71 71 S 7 11 30.01 1016 10 16 0.00 0.00

Powered by AerisWeather